Location: ??????
(42.0089°N, 44.3281°E)
Time: 17:53:26
(UTC+00:00)

USA 267 - Pass Details

Date: 01 June 2022
Orbit: 1101 x 1106 km, 123.0° (Epoch: 28 June)

Event Time Altitude Azimuth Distance (km) Brightness Sun altitude
Exits shadow 00:03:32 17° 215° (SW) 2,455 4.5 -13.3°
Maximum altitude 00:05:33 20° 238° (WSW) 2,313 4.4 -13.0°
Drops below altitude 10° 00:10:05 10° 282° (WNW) 2,959 5.2 -12.4°
Sets 00:13:24 0° 299° (WNW) 3,922 6.0 -12.0°
